Location: Shenandoah County Park
(38.9356°N, 78.4524°W)
Time: 06:55:32
(UTC-05:00)

ITAMSAT 1 - Pass Details

Date: 24 September 2023
Orbit: 783 x 795 km, 98.8° (Epoch: 07 December)

Event Time Altitude Azimuth Distance (km) Brightness Sun altitude
Exits shadow 22:06:05 33° 262° (W) 1,308 9.1 -34.0°
Maximum altitude 22:06:07 33° 263° (W) 1,308 9.1 -34.0°
Drops below altitude 10° 22:10:46 10° 326° (NNW) 2,353 10.8 -34.7°
Sets 22:13:20 0° 336° (NNW) 3,285 11.6 -35.1°
